Tracking 19908 objects as of 18-Oct-2019
HD Live streaming from Space Station
objects crossing your sky now

COSMOS 312

Track COSMOS 312 now!
10-day predictions
COSMOS 312 is classified as:


NORAD ID: 4254
Int'l Code: 1969-103A
Perigee: 1,147.3 km
Apogee: 1,182.3 km
Inclination: 74.0 °
Period: 108.5 minutes
Semi major axis: 7535 km
RCS: 3.057 m2 (large)
Launch date: November 24, 1969
Source: Commonwealth of Independent States (former USSR) (CIS)
Launch site: PLESETSK MISSILE AND SPACE COMPLEX (PKMTR)
aabbcc
Your satellite tracking list
Your tracking list is empty




NASA's NSSDC Master Catalog

Two Line Element Set (TLE):
1  4254U 69103A   19290.81368424 -.00000020 +00000-0 -11251-5 0  9990
2  4254 074.0223 197.5312 0023247 201.9857 188.8909 13.27123842416684
Source of the keplerian elements: AFSPC